STARLINK-1583, 46064

Orbit data source: Space-Track

STARLINK-1583, 46064 is a payload satellite owned by SpaceX/Seattle (US) in LEO that was launched on Fri, 07 Aug 2020 UTC via an FALCON 9 launch vehicle from the Air Force Eastern Test Range (AFETR). Payload-class satellites include a variety of spacecraft equipped with specific instruments for various scientific and technological missions. These include communications satellites like Starlink; space stations such as the ISS; scientific satellites like the Hubble; Earth observation satellites from companies like Planet Labs, Umbra, and HawkEye 360; GPS; miniature CubeSats for education and research; and military/defense satellites.

Loading next visibility...
Identifier
46064, 2020-055AP
Orbit
LEO
Last TLE update
8 hours ago
Origin
Manufacturer
SpaceX/Seattle
Mission
Operational Commercial Communications
Bus & Motor
STARLINK, Unknown motor
Mass
260 kg wet, ~248 kg dry
Launch date (UTC)
2020-08-07 (5 years ago)
Launch vehicle
FALCON 9
Launch site
Air Force Eastern Test Range (AFETR)
Object type
Payload
Rocket body
Debris
Shape & HBR
Box + 1 Pan, 8.86 m
Radar Cross Section
13.562 m², Large (>1 m²)

Expand to show TLE details & history

TLE from 8 hours ago
0 STARLINK-1583
1 46064U 20055AP  25181.92121784  .00001513  00000-0  12043-3 0  9996
2 46064  53.0544 166.8516 0001250  89.5377 270.5755 15.06398206271082
Epoch: 2025-06-30T22:06Z
TLE epoch observation values (Epoch: 2025-06-30T22:06:33.221Z)
Latitude
-0.00003°
Longitude
-84.01094°
Altitude
548.088 km
Speed
7.589 km/s
True Right ascension
11h 07m 24s
True Declination
0° 00' 00"
Sunlit
Object was in daylight at epoch
Visualization orbit readout
Latitude
-43.35562°
Longitude
-130.37899°
Altitude
562.507 km
Speed
7.579 km/s
Apparent Right ascension
06h 45m 22s
Apparent Declination
-43° 12' 09"
Sunlit
Object is in daylight
Visualization observer readout
Local Sidereal Time
17:26:17
Azimuth
251.001° W
Elevation
-74.884°
Doppler factor
1
Orbital elements
Apogee altitude
548.353 km
Perigee altitude
546.622 km
Semi-major axis
6,925.625 km
Eccentricity
0.00013
Inclination
53.0544°
RAAN
166.8516°
Arg. of periapsis
89.5377°
True anomaly
Unknown
Mean anomaly
270.5755°
Eccentric anomaly
Unknown
Mean motion
3.76578 °/min
Orbital period
95.6 mins
BSTAR
0.00012043
Loading maneuver chart data...
Loading SW <> Apogee altitude chart data...
Loading historical data...
Loading historical data...
Loading historical data...
Loading historical data...
Loading historical data...
Loading historical data...
Loading historical data...

STARLINK-1583 Visibility forecast

Observer location: undefined°, undefined°

Span
Click to sort rows by Start time (UTC) header in descending order
Start Az.
Max El. time (UTC)
Max El. Az.
Max El.
End time (UTC)
End Az.
4 mins2025-07-01 06:29:36.056Z341.291° N2025-07-01 06:31:36.056Z13.299° NNE15.565°2025-07-01 06:33:36.056Z46.015° ENE
6 mins2025-07-01 08:09:36.056Z327.892° NNW2025-07-01 08:11:36.056Z14.574° NNE36.198°2025-07-01 08:15:36.056Z108.987° ESE
4 mins2025-07-01 09:49:36.056Z265.476° W2025-07-01 09:51:36.056Z223.084° SW21.683°2025-07-01 09:53:36.056Z186.823° SSW
6 mins2025-07-02 01:21:36.056Z213.648° SW2025-07-02 01:24:36.056Z101.854° ESE40.791°2025-07-02 01:27:36.056Z56.997° ENE
5 mins2025-07-02 03:01:36.056Z288.321° WNW2025-07-02 03:03:36.056Z325.262° NNW22.708°2025-07-02 03:06:36.056Z23.971° NE
|